Date_and_time,latitude,longitude,wind_speed,RelWindDirFrom,WindDirFrom,air_pressure,air_temperature,relative_humidity,Temp,platform_speed_wrt_ground,air_pressure_at_mean_sea_level,platform_orientation
2018-09-06 00:00,50.6304283333333,-96.9807666666667,4.6,7.1,247,998.94,16.9,26,18.60,0.0,1025.45,171.6
2018-09-06 00:10,50.6304466666667,-96.980775,3.5,6.1,265,999.00,16.9,27,18.61,0.0,1025.51,171.6
2018-09-06 00:20,50.63045,-96.9807733333333,3.5,5.8,256,999.16,16.8,28,18.63,0.0,1025.67,171.6
2018-09-06 00:30,50.6304516666667,-96.9807716666667,4.8,6.8,237,999.25,16.5,31,18.64,0.0,1025.77,171.6
2018-09-06 00:40,50.6304483333333,-96.9807666666667,4.5,6.9,228,999.18,16.0,37,18.63,0.0,1025.73,171.6
2018-09-06 00:50,50.6304483333333,-96.9807633333333,4.5,6.6,224,999.13,15.5,40,18.62,0.0,1025.70,171.6
2018-09-06 01:00,50.6304466666667,-96.980765,4.5,6.2,225,999.20,14.9,41,18.63,0.0,1025.79,38.0
2018-09-06 01:10,50.630445,-96.9807616666667,4.2,5.8,232,999.34,14.3,42,18.62,0.0,1025.96,38.0
2018-09-06 01:20,50.630445,-96.9807616666667,3.6,5.1,220,999.34,14.0,45,18.61,0.0,1025.99,38.0
2018-09-06 01:30,50.6304466666667,-96.9807666666667,4.0,5.6,222,999.39,13.6,47,18.60,0.0,1026.06,38.0
2018-09-06 01:40,50.630445,-96.980765,4.4,6.2,226,999.44,13.3,46,18.59,0.0,1026.13,38.0
2018-09-06 01:50,50.6304483333333,-96.980765,3.8,5.4,223,999.49,12.9,47,18.58,0.0,1026.21,38.0
2018-09-06 02:00,50.6304266666667,-96.9807516666667,4.3,5.9,222,999.66,12.6,47,18.57,0.0,1026.40,167.4
2018-09-06 02:10,50.6304333333333,-96.980755,3.9,5.3,219,999.76,12.4,49,18.56,0.0,1026.52,167.4
2018-09-06 02:20,50.630455,-96.98074,4.4,5.8,222,999.82,12.1,47,18.54,0.0,1026.60,167.4
2018-09-06 02:30,50.6304383333333,-96.98076,4.4,5.9,216,999.76,12.0,47,18.53,0.0,1026.57,167.4
2018-09-06 02:40,50.6304433333333,-96.980755,3.2,4.5,215,999.67,12.0,47,18.52,0.0,1026.50,167.4
2018-09-06 02:50,50.6304416666667,-96.9807716666667,4.2,5.9,223,999.71,11.8,46,18.50,0.0,1026.58,167.4
2018-09-06 03:00,50.6304416666667,-96.9807633333333,4.6,6.1,222,999.75,11.7,46,18.48,0.0,1026.65,18.9
2018-09-06 03:10,50.6304566666667,-96.9807716666667,4.5,5.8,225,999.75,11.4,46,18.47,0.0,1026.68,18.9
2018-09-06 03:20,50.6304533333333,-96.9807683333333,5.1,7.1,219,999.90,11.3,49,18.46,0.0,1026.86,18.9
2018-09-06 03:30,50.6304516666667,-96.9807666666667,5.9,7.9,217,1000.00,11.3,48,18.45,0.0,1026.97,18.9
2018-09-06 03:40,50.6304483333333,-96.9807666666667,5.7,7.4,217,999.98,11.1,48,18.43,0.0,1026.98,18.9
2018-09-06 03:50,50.6304416666667,-96.9807616666667,5.9,7.5,213,999.93,11.0,48,18.41,0.0,1026.96,18.9
2018-09-06 04:00,50.6304466666667,-96.980765,5.9,8.0,215,999.98,10.8,49,18.39,0.0,1027.03,0.0
2018-09-06 04:10,50.630445,-96.9807633333333,5.4,7.5,214,999.97,10.8,50,18.38,0.0,1027.03,0.0
2018-09-06 04:20,50.6304433333333,-96.9807616666667,4.9,7.3,215,999.97,10.8,51,18.36,0.0,1027.03,0.0
2018-09-06 04:30,50.6304116666667,-96.9807616666667,4.1,5.7,216,999.95,10.6,52,18.34,0.0,1027.02,0.0
2018-09-06 04:40,50.63044,-96.9807616666667,3.9,5.2,218,999.93,10.4,53,18.33,0.0,1027.02,0.0
2018-09-06 04:50,50.6304416666667,-96.9807633333333,4.4,5.5,226,999.94,10.0,51,18.32,0.0,1027.05,0.0
2018-09-06 05:00,50.6304433333333,-96.9807666666667,4.9,6.3,223,1000.03,9.7,52,18.31,0.0,1027.18,327.5
2018-09-06 05:10,50.6304466666667,-96.980765,5.7,8.0,218,1000.14,9.3,55,18.30,0.0,1027.30,327.5
2018-09-06 05:20,50.6304483333333,-96.9807683333333,6.5,8.4,216,1000.23,9.4,55,18.29,0.0,1027.40,327.5
2018-09-06 05:30,50.6304483333333,-96.9807683333333,6.8,8.7,211,1000.23,9.2,55,18.27,0.0,1027.41,327.5
2018-09-06 05:40,50.63045,-96.9807666666667,7.6,10.5,210,1000.25,9.2,55,18.26,0.0,1027.45,327.5
2018-09-06 05:50,50.6304266666667,-96.9807616666667,8.4,10.4,208,1000.26,9.1,55,18.24,0.0,1027.47,327.5
2018-09-06 06:00,50.6304316666667,-96.9807533333333,7.7,9.8,210,1000.31,9.1,53,18.22,0.0,1027.53,131.7
2018-09-06 06:10,50.6304516666667,-96.98076,7.7,9.8,211,1000.31,9.2,52,18.19,0.0,1027.52,131.7
2018-09-06 06:20,50.6304383333333,-96.9807766666667,7.5,9.9,212,1000.34,9.3,51,18.18,0.0,1027.55,131.7
2018-09-06 06:30,50.6304533333333,-96.9807683333333,7.3,9.4,212,1000.39,9.4,50,18.16,0.0,1027.61,131.7
2018-09-06 06:40,50.6304516666667,-96.9807666666667,6.8,8.8,213,1000.39,9.6,50,18.14,0.0,1027.61,131.7
2018-09-06 06:50,50.63045,-96.9807616666667,7.5,9.7,215,1000.42,9.7,48,18.09,0.0,1027.66,131.7
2018-09-06 07:00,50.6304466666667,-96.9807583333333,7.4,10.5,215,1000.41,9.5,49,18.08,0.0,1027.68,90.0
2018-09-06 07:10,50.6304166666667,-96.9807533333333,7.0,9.0,216,1000.39,9.1,50,18.07,0.0,1027.67,90.0
2018-09-06 07:20,50.6304416666667,-96.9807466666667,6.6,8.9,219,1000.34,9.0,50,18.04,0.0,1027.63,90.0
2018-09-06 07:30,50.63045,-96.9807583333333,7.5,10.5,216,1000.31,9.0,49,18.01,0.0,1027.61,90.0
2018-09-06 07:40,50.6304483333333,-96.98076,7.5,9.0,216,1000.30,8.8,49,18.00,0.0,1027.61,90.0
2018-09-06 07:50,50.6304483333333,-96.9807616666667,7.2,9.4,215,1000.33,8.6,50,17.99,0.0,1027.65,90.0
2018-09-06 08:00,50.6304466666667,-96.9807616666667,8.2,11.4,215,1000.35,8.4,51,17.95,0.0,1027.68,12.6
2018-09-06 08:10,50.6304483333333,-96.9807633333333,8.4,10.7,214,1000.33,8.4,52,17.93,0.0,1027.64,12.6
2018-09-06 08:20,50.6304466666667,-96.9807633333333,8.0,10.5,215,1000.30,8.3,53,17.90,0.0,1027.61,12.6
2018-09-06 08:30,50.6304466666667,-96.980765,7.8,10.7,216,1000.26,8.2,54,17.89,0.0,1027.58,12.6
2018-09-06 08:40,50.6304466666667,-96.9807666666667,7.3,9.9,218,1000.20,8.0,56,17.85,0.0,1027.52,12.6
2018-09-06 08:50,50.6304466666667,-96.980765,6.4,8.6,224,1000.14,7.7,58,17.82,0.0,1027.48,12.6
2018-09-06 09:00,50.6304466666667,-96.980765,6.2,8.1,229,1000.11,7.5,58,17.82,0.0,1027.47,327.5
2018-09-06 09:10,50.63044,-96.9807766666667,6.4,8.3,231,1000.03,7.2,59,17.80,0.0,1027.41,327.5
2018-09-06 09:20,50.63044,-96.98077,6.2,8.0,231,999.98,7.1,60,17.80,0.0,1027.37,327.5
2018-09-06 09:30,50.63044,-96.9807683333333,6.3,8.1,230,999.95,7.2,61,17.80,0.0,1027.34,327.5
2018-09-06 09:40,50.63044,-96.98077,5.6,7.5,223,999.95,7.2,64,17.78,0.0,1027.35,327.5
2018-09-06 09:50,50.6304383333333,-96.9807533333333,5.9,8.6,221,999.94,7.4,65,17.76,0.0,1027.35,327.5
2018-09-06 10:00,50.63044,-96.9807616666667,7.5,11.3,217,999.93,7.4,64,17.75,0.0,1027.33,142.0
2018-09-06 10:10,50.6304366666667,-96.9807583333333,8.8,11.8,219,999.95,7.0,64,17.75,0.0,1027.37,142.0
2018-09-06 10:20,50.6304383333333,-96.9807616666667,7.9,10.8,220,999.88,7.0,64,17.73,0.0,1027.31,142.0
2018-09-06 10:30,50.6304366666667,-96.9807633333333,7.1,9.9,229,999.89,6.9,66,17.72,0.0,1027.34,142.0
2018-09-06 10:40,50.630445,-96.9808133333333,7.4,10.1,228,999.89,6.7,67,17.70,0.0,1027.36,142.0
2018-09-06 10:50,50.6304333333333,-96.9807816666667,6.7,8.8,225,999.90,6.7,69,17.69,0.0,1027.38,142.0
2018-09-06 11:00,50.630435,-96.9807766666667,7.0,8.7,229,999.92,6.7,69,17.66,0.0,1027.41,216.6
2018-09-06 11:10,50.630435,-96.9807766666667,7.4,10.0,228,999.90,6.7,70,17.66,0.0,1027.40,216.6
2018-09-06 11:20,50.630435,-96.980765,7.8,9.6,230,999.86,6.7,70,17.65,0.0,1027.35,216.6
2018-09-06 11:30,50.6304316666667,-96.9807683333333,7.4,9.6,227,999.90,6.8,71,17.63,0.0,1027.38,216.6
2018-09-06 11:40,50.63044,-96.9807583333333,7.2,9.7,221,999.93,6.9,72,17.63,0.0,1027.41,216.6
2018-09-06 11:50,50.6304383333333,-96.980765,7.4,10.2,223,1000.02,6.7,72,17.60,0.0,1027.51,216.6
2018-09-06 12:00,50.6304366666667,-96.9807616666667,7.2,9.5,227,1000.05,6.5,72,17.57,0.0,1027.58,165.5
2018-09-06 12:10,50.630435,-96.9807616666667,8.1,11.0,230,1000.09,6.3,71,17.54,0.0,1027.62,165.5
2018-09-06 12:20,50.6304366666667,-96.980765,7.8,10.0,228,1000.11,6.5,73,17.52,0.0,1027.64,165.5
2018-09-06 12:30,50.6304366666667,-96.9807633333333,7.8,9.6,228,1000.19,6.6,71,17.50,0.0,1027.72,165.5
2018-09-06 12:40,50.6304733333333,-96.9807733333333,7.6,10.7,230,1000.26,7.1,68,17.48,0.0,1027.77,165.5
2018-09-06 12:50,50.6304533333333,-96.9807666666667,7.5,9.6,229,1000.29,7.7,65,17.49,0.0,1027.77,165.5
2018-09-06 13:00,50.6304483333333,-96.980765,7.8,10.5,229,1000.40,8.4,62,17.47,0.0,1027.85,311.7
2018-09-06 13:10,50.630445,-96.980765,7.6,9.7,231,1000.45,8.9,60,17.44,0.0,1027.88,311.7
2018-09-06 13:20,50.63045,-96.9807816666667,7.2,9.6,235,1000.55,9.3,59,17.43,0.0,1027.96,311.7
2018-09-06 13:30,50.630445,-96.9807733333333,7.4,9.7,231,1000.50,9.7,59,17.42,0.0,1027.88,311.7
2018-09-06 13:40,50.6304316666667,-96.980785,7.5,10.5,232,1000.50,10.4,58,17.41,0.0,1027.86,311.7
2018-09-06 13:50,50.63044,-96.9807683333333,7.6,10.7,235,1000.52,11.1,57,17.39,0.0,1027.85,311.7
2018-09-06 14:00,50.6304483333333,-96.98077,8.2,11.2,237,1000.46,12.0,56,17.36,0.0,1027.75,14.5
2018-09-06 14:10,50.6304416666667,-96.9807683333333,7.9,10.3,235,1000.48,12.8,55,17.35,0.0,1027.73,14.5
2018-09-06 14:20,50.63044,-96.9807633333333,7.7,11.2,232,1000.51,13.4,55,17.35,0.0,1027.73,14.5
2018-09-06 14:30,50.6304383333333,-96.980765,8.9,11.9,239,1000.56,13.7,54,17.35,0.0,1027.74,14.5
2018-09-06 14:40,50.6304383333333,-96.9807666666667,9.5,12.1,235,1000.56,14.1,54,17.34,0.0,1027.69,14.5
2018-09-06 14:50,50.6304466666667,-96.9807816666667,8.6,10.7,242,1000.56,14.6,53,17.34,0.0,1027.62,14.5
2018-09-06 15:00,50.6304416666667,-96.980765,7.6,10.7,232,1000.52,15.0,52,17.33,0.0,1027.54,311.7
2018-09-06 15:10,50.6304433333333,-96.9807666666667,7.2,9.6,241,1000.47,15.6,50,17.34,0.0,1027.44,311.7
2018-09-06 15:20,50.6304566666667,-96.98078,6.3,9.2,235,1000.43,16.1,50,17.35,0.0,1027.37,311.7
2018-09-06 15:30,50.6304416666667,-96.9807616666667,6.5,9.7,223,1000.41,16.5,49,17.37,0.0,1027.29,311.7
2018-09-06 15:40,50.6304333333333,-96.9807633333333,6.6,9.6,235,1000.48,17.1,46,17.38,0.0,1027.30,311.7
2018-09-06 15:50,50.6304316666667,-96.9807583333333,6.3,9.6,236,1000.51,17.5,45,17.41,0.0,1027.27,311.7
2018-09-06 16:00,50.6304333333333,-96.9807566666667,6.3,8.2,220,1000.49,17.8,44,17.44,0.0,1027.20,156.5
2018-09-06 16:10,50.6304333333333,-96.9807583333333,5.9,8.6,234,1000.46,18.3,42,17.47,0.0,1027.12,156.5
2018-09-06 16:20,50.6304333333333,-96.98076,6.1,8.6,221,1000.41,18.5,42,17.50,0.0,1027.03,156.5
2018-09-06 16:30,50.6304666666667,-96.98078,4.0,7.3,227,1000.37,19.1,40,17.52,0.0,1026.95,156.5
2018-09-06 16:40,50.6304483333333,-96.98078,4.3,9.3,240,1000.34,19.6,37,17.55,0.0,1026.88,156.5
2018-09-06 16:50,50.630405,-96.980775,4.6,9.4,240,1000.29,19.9,35,17.58,0.0,1026.79,156.5
2018-09-06 17:00,50.6304466666667,-96.9807866666667,5.1,10.5,246,1000.22,20.4,31,17.61,0.0,1026.67,270.0
2018-09-06 17:10,50.6304633333333,-96.98077,5.5,9.9,239,1000.18,20.6,30,17.64,0.0,1026.59,270.0
2018-09-06 17:20,50.6304433333333,-96.9807716666667,5.1,9.1,234,1000.13,21.0,28,17.68,0.0,1026.51,270.0
2018-09-06 17:30,50.6304383333333,-96.9807716666667,5.6,10.8,256,1000.09,21.1,28,17.73,0.0,1026.44,270.0
2018-09-06 17:40,50.63044,-96.980775,7.9,14.0,253,999.98,21.2,26,17.76,0.0,1026.30,270.0
2018-09-06 17:50,50.6304233333333,-96.9807766666667,6.7,11.6,229,999.89,21.3,27,17.84,0.0,1026.19,270.0
2018-09-06 18:00,50.6304283333333,-96.9807733333333,6.8,11.5,248,999.86,21.4,26,17.93,0.0,1026.13,203.5
2018-09-06 18:10,50.630435,-96.9807666666667,7.0,11.9,233,999.83,21.6,27,17.92,0.0,1026.08,203.5
2018-09-06 18:20,50.63045,-96.9807766666667,7.1,12.8,252,999.81,21.6,27,17.90,0.0,1026.04,203.5
2018-09-06 18:30,50.6304433333333,-96.98077,6.8,12.3,253,999.68,21.8,26,18.03,0.0,1025.87,203.5
2018-09-06 18:40,50.6304416666667,-96.980765,6.9,13.7,269,999.60,22.1,25,18.00,0.0,1025.76,203.5
2018-09-06 18:50,50.6304433333333,-96.9807416666667,6.5,13.7,239,999.57,22.0,25,18.01,0.0,1025.71,203.5
2018-09-06 19:00,50.6304266666667,-96.9807683333333,7.8,14.2,240,999.43,22.1,25,18.01,0.0,1025.54,192.6
2018-09-06 19:10,50.6304366666667,-96.9807733333333,7.2,13.6,254,999.39,22.3,25,17.99,0.0,1025.49,192.6
2018-09-06 19:20,50.6304316666667,-96.98077,5.8,11.7,278,999.30,22.4,25,18.08,0.0,1025.38,192.6
2018-09-06 19:30,50.6304333333333,-96.9807683333333,8.0,14.1,239,999.25,22.4,25,18.10,0.0,1025.34,192.6
2018-09-06 19:40,50.6304483333333,-96.98076,7.4,14.5,255,999.19,22.5,24,18.08,0.0,1025.26,192.6
2018-09-06 19:50,50.630445,-96.9807533333333,4.3,14.1,266,999.06,22.6,24,18.23,0.0,1025.11,192.6
2018-09-06 20:00,50.6304433333333,-96.980755,5.5,9.6,288,998.94,22.8,24,18.17,0.0,1024.98,104.2
2018-09-06 20:10,50.6304433333333,-96.9807583333333,7.5,11.3,268,998.85,22.9,24,18.21,0.0,1024.88,104.2
2018-09-06 20:20,50.6304416666667,-96.9807583333333,6.2,11.3,288,998.73,22.9,24,18.14,0.0,1024.75,104.2
2018-09-06 20:30,50.6304416666667,-96.98076,6.8,13.6,249,998.69,23.0,23,18.09,0.0,1024.69,104.2
2018-09-06 20:40,50.63044,-96.98076,6.0,10.6,239,998.65,23.0,23,18.07,0.0,1024.65,104.2
2018-09-06 20:50,50.63044,-96.98076,6.0,10.3,290,998.54,23.2,23,18.03,0.0,1024.52,104.2
2018-09-06 21:00,50.63044,-96.9807616666667,4.5,8.9,303,998.47,23.1,28,18.03,0.0,1024.45,3.2
2018-09-06 21:10,50.63044,-96.9807616666667,6.9,9.7,357,998.47,21.8,37,18.06,0.0,1024.50,3.2
2018-09-06 21:20,50.63044,-96.9807616666667,8.3,11.9,62,998.29,21.3,48,18.06,0.0,1024.34,3.2
2018-09-06 21:30,50.63044,-96.9807616666667,9.1,10.5,75,998.23,20.9,57,18.00,0.0,1024.30,3.2
2018-09-06 21:40,50.63044,-96.9807616666667,6.6,9.7,86,998.21,21.3,53,17.94,0.0,1024.24,3.2
2018-09-06 21:50,50.63044,-96.9807616666667,6.3,9.4,78,998.24,21.7,35,17.88,0.0,1024.26,3.2
2018-09-06 22:00,50.63044,-96.9807633333333,7.6,9.3,75,998.27,21.6,42,17.84,0.0,1024.28,360.0
2018-09-06 22:10,50.630445,-96.9807683333333,8.9,10.5,76,998.19,21.1,46,17.81,0.0,1024.22,360.0
2018-09-06 22:20,50.6304416666667,-96.9807766666667,5.5,9.1,73,998.24,20.6,51,17.79,0.0,1024.29,360.0
2018-09-06 22:30,50.6304383333333,-96.9807633333333,4.6,7.9,87,998.26,20.9,50,17.77,0.0,1024.30,360.0
2018-09-06 22:40,50.6304416666667,-96.9807616666667,5.2,7.5,91,998.29,21.6,51,17.75,0.0,1024.29,360.0
2018-09-06 22:50,50.6304433333333,-96.9807633333333,6.4,7.7,99,998.23,21.6,53,17.72,0.0,1024.24,360.0
2018-09-06 23:00,50.6304433333333,-96.9807633333333,6.3,8.3,105,998.22,21.1,48,17.70,0.0,1024.30,270.0
2018-09-06 23:10,50.6304416666667,-96.980765,5.9,8.0,115,998.26,21.4,47,17.74,0.0,1024.35,270.0
2018-09-06 23:20,50.6304416666667,-96.9807683333333,5.5,7.9,127,998.25,20.6,51,17.75,0.0,1024.39,270.0
2018-09-06 23:30,50.6304316666667,-96.9807616666667,5.8,7.7,118,998.34,21.1,40,17.72,0.0,1024.45,270.0
2018-09-06 23:40,50.6304383333333,-96.98077,4.5,6.1,116,998.39,20.9,49,17.73,0.0,1024.49,270.0
